This is the latest recevied weather packets stored in our database for station/object N9CQL. If no packets are shown the sender has not sent any weather packets the latest 10 day(s).
| Time | Temp. | Humidity | Pressure | Rain* | Wind** | Luminosity | Snow |
|---|---|---|---|---|---|---|---|
| 1777077782 | 20° C | 65% | 1006.4 hPa | 0 mm | - | 3 W/m² | - |
| 1777077481 | 20° C | 65% | 1006.6 hPa | 0 mm | - | 5 W/m² | - |
| 1777077180 | 20° C | 65% | 1006.4 hPa | 0 mm | - | 6 W/m² | - |
| 1777076879 | 20.56° C | 65% | 1006.4 hPa | 0 mm | - | 10 W/m² | - |
| 1777076575 | 20.56° C | 65% | 1006.6 hPa | 0 mm | - | 15 W/m² | - |
| 1777076271 | 20.56° C | 64% | 1006.5 hPa | 0 mm | - | 19 W/m² | - |
| 1777075967 | 20.56° C | 64% | 1006.3 hPa | 0 mm | - | 26 W/m² | - |
| 1777075663 | 20.56° C | 64% | 1006.3 hPa | 0 mm | - | 32 W/m² | - |
| 1777075359 | 20.56° C | 63% | 1006.1 hPa | 0 mm | - | 36 W/m² | - |
| 1777075056 | 20.56° C | 63% | 1006.4 hPa | 0 mm | - | 44 W/m² | - |
| 1777074751 | 20.56° C | 64% | 1006.5 hPa | 0 mm | - | 46 W/m² | - |
| 1777074446 | 20.56° C | 63% | 1006.3 hPa | 0 mm | - | 52 W/m² | - |
| 1777074143 | 21.11° C | 63% | 1006.3 hPa | 0 mm | - | 57 W/m² | - |
| 1777073840 | 20.56° C | 64% | 1006.2 hPa | 0 mm | - | 64 W/m² | - |
| 1777073535 | 20.56° C | 64% | 1006.3 hPa | 0 mm | - | 69 W/m² | - |
| 1777073230 | 20.56° C | 64% | 1006.5 hPa | 0 mm | - | 72 W/m² | - |
| 1777072927 | 20.56° C | 64% | 1006 hPa | 0 mm | - | 71 W/m² | - |
| 1777072623 | 20.56° C | 64% | 1006.1 hPa | 0 mm | - | 77 W/m² | - |
| 1777072316 | 21.11° C | 64% | 1006.1 hPa | 0 mm | - | 83 W/m² | - |
| 1777072010 | 21.11° C | 63% | 1006.2 hPa | 0 mm | - | 91 W/m² | - |
| 1777071707 | 21.11° C | 64% | 1006.1 hPa | 0 mm | - | 99 W/m² | - |
| 1777071403 | 21.11° C | 64% | 1006 hPa | 0 mm | - | 107 W/m² | - |
| 1777071098 | 21.11° C | 63% | 1005.8 hPa | 0 mm | - | 131 W/m² | - |
| 1777070794 | 21.11° C | 64% | 1005.9 hPa | 0 mm | - | 90 W/m² | - |
| 1777070492 | 21.67° C | 64% | 1005.6 hPa | 0 mm | - | 88 W/m² | - |
* Rain latest hour (hover to see other rain measurements)
** Current wind speed in m/s (hover to see current wind gust speed)